Weather History for Gillette, WY

Change the Weather History Date:

Tuesday, November 20, 2012

  Actual Average Record
Temperature  
Mean Temperature 51 °F 31 °F  
Max Temperature 65 °F 42 °F 65 °F (1962)
Min Temperature 36 °F 19 °F -9 °F (1985)
Degree Days  
Heating Degree Days 14 34  
Month to date heating degree days 516 596  
Since 1 July heating degree days 1313 1505  
Cooling Degree Days 0 0  
Month to date cooling degree days 0 0  
Year to date cooling degree days 795 502  
Moisture  
Dew Point 29 °F    
Average Humidity 51    
Maximum Humidity 76    
Minimum Humidity 26    
Precipitation  
Precipitation 0.00 in 0.02 in 0.31 in (1979)
Month to date precipitation 0.15 0.40  
Year to date precipitation 8.62 13.34  
Sea Level Pressure  
Sea Level Pressure 29.92 in    
Wind  
Wind Speed 19 mph (SW)    
Max Wind Speed 37 mph    
Max Gust Speed 44 mph    
Visibility 10 miles    
Events      
T = Trace of Precipitation, MM = Missing Value Source: NWS Daily Summary

Daily Weather History Graph

Daily Weather History Graph

Search for Another Location

Airport:

Trip Planner

Search our weather history database for the weather conditions in past years. The results will help you decide how hot, cold, wet, or windy it might be!

Date:

Astronomy

Nov. 20, 2012 Rise Set
Actual Time 7:05 AM MST 4:30 PM MST
Civil Twilight 6:33 AM MST 5:02 PM MST
Nautical Twilight 5:57 AM MST 5:37 PM MST
Astronomical Twilight 5:23 AM MST 6:12 PM MST
Moon 12:32 PM MST (11/20) No Moon Set
Length of Visible Light 10h 28m
Length of Day
9h 24m
First Quarter, 52% of the Moon is Illuminated
Nov 20
First Quarter
Nov 28
Full
Dec 6
Last Quarter
Dec 13
New
Dec 19
First Quarter

Hourly Weather History & Observations

Time (MST) Temp. Windchill Dew Point Humidity Pressure Visibility Wind Dir Wind Speed Gust Speed Precip Events Conditions
12:53 AM 37.4 °F 32.8 °F 30.2 °F 75% 29.99 in 10.0 mi SE 5.8 mph - N/A   Clear
1:53 AM 44.1 °F 35.7 °F 28.9 °F 55% 29.93 in 10.0 mi SSW 20.7 mph 32.2 mph N/A   Clear
2:53 AM 44.1 °F 36.8 °F 28.9 °F 55% 29.93 in 10.0 mi SSW 16.1 mph - N/A   Clear
3:53 AM 44.1 °F 36.5 °F 28.0 °F 53% 29.94 in 10.0 mi SW 17.3 mph 25.3 mph N/A   Clear
4:53 AM 44.6 °F 36.6 °F 28.4 °F 53% 29.98 in 10.0 mi SW 19.6 mph - N/A   Clear
5:53 AM 44.1 °F 35.9 °F 28.0 °F 53% 30.00 in 10.0 mi SW 19.6 mph - N/A   Clear
6:53 AM 45.0 °F 36.9 °F 28.9 °F 53% 29.98 in 10.0 mi SW 20.7 mph 26.5 mph N/A   Clear
7:53 AM 48.0 °F - 28.9 °F 48% 29.99 in 10.0 mi SW 23.0 mph 27.6 mph N/A   Clear
8:53 AM 50.0 °F - 28.9 °F 44% 29.98 in 10.0 mi SW 19.6 mph - N/A   Clear
9:53 AM 54.0 °F - 30.0 °F 40% 29.97 in 10.0 mi SW 18.4 mph 26.5 mph N/A   Clear
10:53 AM 55.9 °F - 30.9 °F 39% 29.97 in 10.0 mi SW 13.8 mph - N/A   Clear
11:53 AM 60.1 °F - 30.0 °F 32% 29.94 in 10.0 mi SW 18.4 mph - N/A   Clear
12:53 PM 64.0 °F - 28.0 °F 26% 29.92 in 10.0 mi SW 12.7 mph - N/A   Clear
1:53 PM 63.0 °F - 28.0 °F 27% 29.89 in 10.0 mi WSW 8.1 mph - N/A   Clear
2:53 PM 63.0 °F - 30.0 °F 29% 29.88 in 10.0 mi SSW 12.7 mph - N/A   Unknown
3:53 PM 57.9 °F - 30.9 °F 36% 29.89 in 10.0 mi South 10.4 mph - N/A   Clear
4:53 PM 55.9 °F - 30.9 °F 39% 29.90 in 10.0 mi SW 15.0 mph - N/A   Clear
5:53 PM 55.9 °F - 32.0 °F 40% 29.88 in 10.0 mi SW 21.9 mph 27.6 mph N/A   Clear
6:53 PM 55.9 °F - 32.0 °F 40% 29.87 in 10.0 mi SW 25.3 mph 32.2 mph N/A   Clear
7:53 PM 55.9 °F - 30.0 °F 37% 29.86 in 10.0 mi SW 26.5 mph 38.0 mph N/A   Clear
8:53 PM 55.0 °F - 30.0 °F 38% 29.84 in 10.0 mi SW 28.8 mph 36.8 mph N/A   Clear
9:53 PM 54.0 °F - 28.9 °F 38% 29.85 in 10.0 mi SW 27.6 mph 36.8 mph N/A   Clear
10:53 PM 54.0 °F - 28.9 °F 38% 29.82 in 10.0 mi SW 26.5 mph 36.8 mph N/A   Clear
11:53 PM 54.0 °F - 28.0 °F 37% 29.80 in 10.0 mi SW 27.6 mph 39.1 mph N/A   Clear